Regional Weather Roundup
Issued by NWS

Home | Current Version | Previous Version | Graphics & Text | Print | Product List | Glossary On
Versions: 1 2 3 4 5 6 7 8 9 10 11 12 13 14 15 16 17 18 19 20 21 22 23 24 25 26 27 28 29 30 31 32 33 34 35 36 37 38 39 40 41 42 43 44 45 46 47 48 49 50
000
ASUS43 KDTX 242101
RWRMI
MICHIGAN HOURLY REGIONAL WEATHER ROUNDUP
NATIONAL WEATHER SERVICE DETROIT/PONTIAC MI
500 PM EDT SUN SEP 24 2017

NOTE: "FAIR" INDICATES FEW OR NO CLOUDS BELOW 12,000 FEET WITH NO
SIGNIFICANT WEATHER AND/OR OBSTRUCTION TO VISIBILITY.

MIZ047>049-052>055-059>063-066>070-074>076-081>083-242200-
SOUTHEAST LOWER MICHIGAN

CITY           SKY/WX    TMP DP  RH WIND       PRES   REMARKS
ADRIAN         SUNNY     90  57  32 SE7       30.08F
ALMA           SUNNY     93  48  20 SE7G17    30.06F HX  90
ANN ARBOR      SUNNY     89  58  34 E7        30.08F
BAD AXE        SUNNY     89  60  37 S7        30.10S
CARO           SUNNY     91  58  33 SE10      30.08F
DETROIT CITY   SUNNY     87  65  47 SE9       30.09F
DETROIT        MOSUNNY   88  63  43 SE7       30.09F
FLINT          SUNNY     91  58  32 S10       30.08F HX  90
GROSSE ILE     SUNNY     82  68  63 S5        30.08F
HILLSDALE      PTSUNNY   88  54  31 SE6       30.09F
HOWELL         SUNNY     90  53  28 S8        30.09F

CITY           SKY/WX    TMP DP  RH WIND       PRES   REMARKS
JACKSON        SUNNY     91  53  27 SE10      30.08F
LAMBERTVILLE   SUNNY     86  62  43 E5        30.08F
LANSING        SUNNY     90  56  31 S10       30.07F
LAPEER         FAIR      89  59  36 SE6       30.10F
MASON          SUNNY     91  56  31 SE9       30.08F
MONROE         SUNNY     86  60  41 E7        30.08F
MT. CLEMENS    MOSUNNY   86  68  54 S7        30.08F
PONTIAC        MOSUNNY   89  61  38 SE10      30.09F
PORT HOPE        N/A     81  66  60 SE14      30.08F
PORT HURON     SUNNY     90  64  43 S5        30.09F HX  91
TRI CITIES     SUNNY     93  57  29 S8        30.07F HX  91
MIDLAND        FAIR      93  55  27 S8        30.05F HX  91
TROY           SUNNY     89  61  39 SE5       30.11S
SAGINAW HB     SUNNY     91  55  29 S7        30.06F
$$
MIZ043>046-050>051-056>058-064>065-071>073-077>080-242200-
SOUTHWEST LOWER MICHIGAN

CITY           SKY/WX    TMP DP  RH WIND       PRES   REMARKS
BATTLE CREEK   SUNNY     91  56  30 S8        30.08F
BENTON HARBOR  SUNNY     91  55  29 SE12      30.03F
BIG RAPIDS     MOSUNNY   91  49  24 S7        30.05F
COLDWATER      SUNNY     88  53  29 E7        30.08F
FREMONT        FAIR      88  60  38 W9        30.05F
HOLLAND        SUNNY     89  59  36 VRB6      30.05F
GRAND RAPIDS   MOSUNNY   93  55  27 S13       30.05F HX  91
IONIA          FAIR      92  51  24 S12G18    30.05F
KALAMAZOO      SUNNY     91  53  27 S7        30.06F
LUDINGTON      SUNNY     83  63  50 SW10      30.04F
MARSHALL       SUNNY     89  56  33 SE7       30.07F
MOUNT PLEASANT SUNNY     94  51  23 SE9       30.05F HX  91
MUSKEGON       MOSUNNY   87  58  37 W7        30.05F
SOUTH HAVEN    SUNNY     89  55  31 N3        30.04F
$$
MIZ016>042-242200-
NORTHERN LOWER MICHIGAN

CITY           SKY/WX    TMP DP  RH WIND       PRES   REMARKS
ALPENA         SUNNY     91  62  37 S10       30.06F HX  91
BELLAIRE       SUNNY     90  62  38 NW3       30.02F HX  90
CADILLAC       SUNNY     93  49  22 S13       30.07F
CHARLEVOIX     SUNNY     86  63  45 W6        30.07F
FRANKFORT      SUNNY     81  65  58 W6        30.04F
GAYLORD        SUNNY     88  57  34 S12       30.08F
GRAYLING       SUNNY     89  55  31 S9        30.08F
HARBOR SPRINGS SUNNY     84  65  53 S3        30.04F
HOUGHTON LAKE  SUNNY     89  58  34 S9        30.09F
MANISTEE       SUNNY     87  65  47 SW8       30.03F
OSCODA         SUNNY     84  61  46 SE6       30.08F
PELLSTON       SUNNY     91  63  39 VRB5      30.04F HX  92
ROGERS CITY    SUNNY     89  61  38 S6        30.06F
TRAVERSE CITY  MOSUNNY   88  63  43 NE7       30.01F
$$
MIZ007>008-015-242200-
EASTERN UPPER MICHIGAN

CITY           SKY/WX    TMP DP  RH WIND       PRES   REMARKS
KINROSS        SUNNY     86  66  51 S9        30.05F
MACKINAC ISLAN SUNNY     85  62  44 CALM      30.05F
NEWBERRY       SUNNY     82  68  61 S9        30.03F
S. S. MARIE    SUNNY     88  66  48 SW12      30.03F HX  90
MUNISING         N/A     88  68  51 S12G22    29.98F HX  91
$$
MIZ004>006-011>014-085-242200-
CENTRAL UPPER MICHIGAN

CITY           SKY/WX    TMP DP  RH WIND       PRES   REMARKS
MANISTIQUE     SUNNY     74  67  79 S9        30.03S
ESCANABA       SUNNY     80  70  71 S9        30.00F
MENOMINEE      SUNNY     86  68  54 S12       29.99
SAWYER-GWINN   SUNNY     88  63  42 S15       30.00F
$$
MIZ001>003-009>011-084-242200-
WESTERN UPPER MICHIGAN

CITY           SKY/WX    TMP DP  RH WIND       PRES   REMARKS
IRON MOUNTAIN  MOSUNNY   85  63  47 S10       29.99F
HOUGHTON       SUNNY     88  59  37 S9G21     29.93F
COPPER HARBOR    N/A     86  62  44 VRB5      29.92F
IRONWOOD       SUNNY     87  58  37 S12       29.93F
$$

ABBREVIATIONS USED IN REMARKS
   TC - TEMPERATURE IN CELSIUS
  WCI - WIND CHILL INDEX
   HX - HEAT INDEX
  VSB - VISIBILITY




USA.gov is the U.S. government's official web portal to all federal, state and local government web resources and services.